This demonstration page uses our WeatherBlox Daily Observations layout. Learn more.

41.55636, -103.73856

Hourly Observations for May 29, 2015

Temp ( °F °C ) Dew Point ( °F °C ) Humidity (%) Winds ( mph kmh ) Pressure ( in mb ) Visibility ( mi km ) Precip ( " mm )
12:53 am 00:53 Mostly Clear 54 12.2 52 11.1 93 93 WNW 7 11 29.96 1015 10 16.0934 0 0
1:53 am 01:53 Clear 53 11.7 50 10 89 89 NW 6 9 29.98 1015 10 16.0934 0 0
2:53 am 02:53 Clear 50 10 48 8.9 93 93 NW 6 9 29.98 1015 10 16.0934 0 0
3:53 am 03:53 Clear 51 10.6 49 9.4 92 92 W 7 11 29.99 1016 10 16.0934 0 0
4:53 am 04:53 Cloudy 52 11.1 49 9.4 89 89 W 8 13 29.98 1015 10 16.0934 0 0
5:53 am 05:53 Partly Cloudy 52 11.1 50 10 93 93 W 6 9 30.01 1016 10 16.0934 0 0
6:53 am 06:53 Cloudy 54 12.2 51 10.6 90 90 W 9 15 30.04 1017 10 16.0934 0 0
7:53 am 07:53 Cloudy 55 12.8 51 10.6 87 87 W 8 13 30.08 1019 10 16.0934 0 0
8:53 am 08:53 Cloudy 57 13.9 52 11.1 83 83 WNW 8 13 30.09 1019 10 16.0934 0 0
9:31 am 09:31 Cloudy with Light Rain 56 13.3 51 10.6 84 84 NW 10 17 30.03 1017 9 14.48406 0 0.0254
9:53 am 09:53 Cloudy with Light Rain 54 12.2 52 11.1 93 93 NNW 9 15 30.11 1020 6 9.65604 0.02 0.508
10:53 am 10:53 Cloudy with Rain 53 11.7 52 11.1 96 96 WNW 6 9 30.12 1020 4 6.43736 0.17 4.318
11:53 am 11:53 Cloudy with Light Rain 54 12.2 53 11.7 97 97 WSW 10 17 30.14 1021 6 9.65604 0.11 2.794
12:03 pm 12:03 Cloudy with Rain 54 12 54 12 100 100 W 8 13 30.12 1020 2.5 4.02335 0 0
12:09 pm 12:09 Cloudy with Heavy Rain 53 11.7 53 11.7 100 100 NW 7 11 30.12 1020 0.75 1.207005 0.09 2.286
12:22 pm 12:22 Cloudy with Rain 52 11 52 11 100 100 NNE 7 11 30.15 1021 2 3.21868 0 0
12:31 pm 12:31 Cloudy with Heavy Rain 52 11.1 52 11.1 100 100 N 9 15 30.15 1021 2 3.21868 0.29 7.366
12:38 pm 12:38 Cloudy with Heavy Rain 52 11 N/A N/A NNE 10 17 30.15 1021 1.75 2.816345 0 0
12:53 pm 12:53 Cloudy with Rain 52 11 N/A N/A NNE 13 20 30.18 1022 2 3.21868 0.38 9.652
1:07 pm 13:07 Cloudy with Rain 52 11 N/A N/A NE 12 19 30.18 1022 3 4.82802 0.04 1.016
1:53 pm 13:53 Cloudy with Light Rain 51 10.6 49 9.4 92 92 NNE 16 26 30.21 1023 5 8.0467 0.1 2.54
2:18 pm 14:18 Cloudy with Light Rain 52 11 48 9 88 88 NNE 13 20 30.18 1022 9 14.48406 0 0
2:43 pm 14:43 Cloudy with Light Rain 50 10 48 8.9 93 93 N 12 19 30.18 1022 1.5 2.41401 0.04 1.016
2:53 pm 14:53 Cloudy with Light Rain 50 10 47 8.3 89 89 NNE 14 22 30.23 1024 4 6.43736 0.06 1.524
3:53 pm 15:53 Cloudy with Light Rain 51 10.6 48 8.9 89 89 NNE 17 28 30.23 1024 8 12.87472 0.02 0.508
4:53 pm 16:53 Cloudy with Light Rain 53 11.7 49 9.4 86 86 NNE 15 24 30.23 1024 10 16.0934 0.01 0.254
5:53 pm 17:53 Cloudy with Light Rain 52 11.1 48 8.9 86 86 NNE 14 22 30.23 1024 10 16.0934 0 0.0254
6:33 pm 18:33 Mostly Cloudy 52 11.1 47 8.3 83 83 NNE 10 17 30.21 1023 10 16.0934 0 0.0254
6:53 pm 18:53 Cloudy 51 10.6 47 8.3 86 86 NNE 8 13 30.25 1024 10 16.0934 0 0.0254
7:53 pm 19:53 Cloudy 50 10 46 7.8 86 86 NNE 9 15 30.27 1025 10 16.0934 0 0
8:53 pm 20:53 Cloudy 49 9.4 46 7.8 90 90 E 6 9 30.25 1025 10 16.0934 0 0
9:06 pm 21:06 Mostly Cloudy 48 8.9 45 7.2 89 89 ENE 6 9 30.27 1025 10 16.0934 0 0
9:53 pm 21:53 Clear 47 8.3 44 6.7 90 90 Calm 30.27 1025 10 16.0934 0 0
10:29 pm 22:29 Mostly Cloudy 46 7.8 44 6.7 93 93 Calm 30.3 1026 10 16.0934 0 0
10:51 pm 22:51 Cloudy 46 8 45 7 93 93 Calm 30.3 1026 10 16.0934 0 0
10:53 pm 22:53 Cloudy 47 8.3 46 7.8 97 97 Calm 30.28 1025 10 16.0934 0 0
11:53 pm 23:53 Cloudy 48 8.9 46 7.8 93 93 NE 7 11 30.27 1025 10 16.0934 0 0

Powered by AerisWeather